AirNav   Pilot Hours Calculator
 
 1242 users online  

M38 Hazel Green Airport
Hazel Green, Alabama, USA

GOING TO HAZEL GREEN?


FAA INFORMATION EFFECTIVE 31 JANUARY 2019

Location

FAA Identifier: M38
Lat/Long: 34-54-57.6000N / 086-38-49.6000W
34-54.960000N / 086-38.826667W
34.9160000 / -86.6471111
(estimated)
Elevation: 814 ft. / 248 m (estimated)
Variation: 00W (1985)
From city: 4 miles W of HAZEL GREEN, AL
Time zone: UTC -6 (UTC -5 during Daylight Saving Time)
Zip code: 35773

Airport Operations

Airport use: Open to the public
Activation date: 01/1966
Control tower: no
ARTCC: MEMPHIS CENTER
FSS: ANNISTON FLIGHT SERVICE STATION
NOTAMs facility: ANB (NOTAM-D service available)
Attendance: TUE-SAT 0800-1700
Wind indicator: yes
Segmented circle: no
Lights: ACTVT LIRL RY 07/25 - CTAF.
Beacon: white-green (lighted land airport)
Operates sunset to sunrise.

Airport Communications

CTAF/UNICOM: 122.8
WX AWOS-3PT at MDQ (6 nm SE): 120.000 (256-829-1242)
WX AWOS-3 at FYM (10 nm NE): 135.275 (931-433-5916)
WX ASOS at HSV (18 nm S): PHONE 256-772-8074

Nearby radio navigation aids

VOR radial/distance  VOR name  Freq  Var
RQZr353/7.2ROCKET VORTAC112.2002E
DCUr043/21.6DECATUR VOR/DME112.8001W

 
NDB name  Hdg/Dist  Freq  Var  ID
REDSTONE013/13.228704WHUA .... ..- .-
BURWI214/38.333203WULH ..- .-.. ....

Airport Services

Fuel available: 100LL
Parking: tiedowns
Bottled oxygen: NONE
Bulk oxygen: NONE

Runway Information

Runway 7/25

Dimensions: 2670 x 40 ft. / 814 x 12 m
Surface: asphalt, in good condition
Weight bearing capacity: 
Single wheel: 10.0
Runway edge lights: low intensity
RUNWAY 7  RUNWAY 25
Latitude: 34-54.893000N34-55.026500N
Longitude: 086-39.081500W086-38.572167W
Gradient: 0.1%0.1%
Traffic pattern: leftleft
Displaced threshold: no550 ft.
Markings: basic, in good conditionbasic, in good condition
Obstructions: 65 ft. tree, 1433 ft. from runway, 139 ft. left of centerline, 18:1 slope to clear56 ft. trees, 200 ft. from runway, 75 ft. left of centerline
+77 FT TREES 167 FT TO 200 FRM RY THLD 75 FT LEFT OF CNTRLN.

Airport Ownership and Management from official FAA records

Ownership: Privately-owned
Owner: HAZEL GREEN FLYERS INC
342 OPP REYNOLDS RD
HAZEL GREEN, AL 35750
Phone 256-508-8533
Manager: BOB LUTHER
386 OPP REYNOLDS ROAD
HAZEL GREEN, AL 35750
Phone 256-508-8533

Airport Operational Statistics

Aircraft based on the field: 20
Single engine airplanes: 18
Gliders airplanes: 2
    
Aircraft operations: avg 31/day *
71% transient general aviation
29% local general aviation
* for 12-month period ending 07 July 2010

Additional Remarks

TWY LGTS FOR TWY TURNOFF ONLY.

Instrument Procedures

There are no published instrument procedures at M38.

Some nearby airports with instrument procedures:

KMDQ - Huntsville Executive Airport / Tom Sharp Jr Field (6 nm SE)
KFYM - Fayetteville Municipal Airport (10 nm NE)
KHUA - Redstone Army Airfield (14 nm S)
KHSV - Huntsville International Airport-Carl T Jones Field (18 nm S)
KDCU - Pryor Field Regional Airport (22 nm SW)
 
Loc | Ops | Rwys | IFR | FBO | Links
Com | Nav | Svcs | Stats | Notes
Area around M38 (Hazel Green Airport)
 
Road maps at: MapQuest Bing Google
 
Aerial photo
WARNING: Photo may not be current or correct
Aerial photo of M38 (Hazel Green Airport)
Photo taken 07-May-2011
looking northwest.

Do you have a better or more recent aerial photo of Hazel Green Airport that you would like to share? If so, please send us your photo.

 
Sectional chart

 
Airport distance calculator
Flying to Hazel Green Airport? Find the distance to fly.

From to M38

Sunrise and sunset
Times for 22-Feb-2019
 Local
(UTC-6)
 Zulu
(UTC)
Morning civil twilight06:0012:00
Sunrise06:2612:26
Sunset17:3523:35
Evening civil twilight18:0000:00

Current date and time
Zulu (UTC)  22-Feb-2019 21:57:39
Local (UTC-6)  22-Feb-2019 15:57:39
 
METAR
KMDQ 
6nm SE 
222135Z AUTO 02005KT 10SM -DZ OVC005 12/11 A3016 RMK A02 T01190112
KFYM 
10nm NE 
222140Z AUTO 05007KT 7SM SCT004 SCT025 11/11 A3016 RMK A01
KHUA 
14nm S 
222148Z AUTO 01004KT 8SM OVC005 12/12 A3015 RMK AO2 RAE15 SLPNO
KHSV 
17nm SW 
222153Z 07008KT 8SM BKN006 OVC050 13/12 A3014 RMK AO2 SLP204 T01280122
TAF
KHSV 
17nm SW 
221956Z 2220/2318 09005KT P6SM -RA SCT007 OVC050 TEMPO 2221/2223 BKN007 FM230200 10007KT 6SM -SHRA BR BKN020 FM230600 13008KT P6SM -SHRA SCT015 BKN050 FM231500 16012KT P6SM VCSH BKN025 PROB30 2315/2318 -TSRA BKN015CB
NOTAMs
Click for the latest NOTAMs
NOTAMs are issued by the DoD/FAA and will open in a separate window not controlled by AirNav.

 

 
 

Aviation Businesses, Services, and Facilities

  
 Business Name 
 
 Contact 
 
 Services / Description 
 
Distance
 
Comments
  
Hazel Green Flyers 256-534-2801
no information available

If you are affiliated with Hazel Green Flyers and would like to show here your services, contact info, web link, logo, and more, click here
on airport  
   write
 

Would you like to see your business listed on this page?

 If your business provides an interesting product or service to pilots, flight crews, aircraft, or users of the Hazel Green Airport, you should consider listing it here.  To start the listing process, click on the button below
 
Add a business
 

Other Pages about Hazel Green Airport

Update a link
 
Copyright © AirNav, LLC. All rights reserved. Privacy Policy  Contact